Time,TemperatureF,DewpointF,PressureIn,WindDirection,WindDirectionDegrees,WindSpeedMPH,WindSpeedGustMPH,Humidity,HourlyPrecipIn,Conditions,Clouds,dailyrainin,SoftwareType,DateUTC
2013-01-13 00:01:00,27.0,3.4,29.94,North,0,0.0,0.0,36,0.00,,,0.00,WUHU216HW,2013-01-13 07:01:00,
2013-01-13 00:02:00,27.0,4.1,29.94,North,0,0.0,0.0,37,0.00,,,0.00,WUHU216HW,2013-01-13 07:02:00,
2013-01-13 00:03:00,27.0,3.4,29.94,North,0,0.0,0.0,36,0.00,,,0.00,WUHU216HW,2013-01-13 07:03:00,
2013-01-13 00:04:00,27.0,3.4,29.94,North,0,0.0,0.0,36,0.00,,,0.00,WUHU216HW,2013-01-13 07:04:00,
2013-01-13 00:07:00,27.0,4.1,29.94,North,0,0.0,0.0,37,0.00,,,0.00,WUHU216HW,2013-01-13 07:07:00,
2013-01-13 00:08:00,27.0,4.1,29.94,North,0,0.0,0.0,37,0.00,,,0.00,WUHU216HW,2013-01-13 07:08:00,
2013-01-13 00:09:00,27.0,3.4,29.94,North,0,0.0,0.0,36,0.00,,,0.00,WUHU216HW,2013-01-13 07:09:00,
2013-01-13 00:13:00,26.6,3.1,29.94,North,0,0.0,0.0,36,0.00,,,0.00,WUHU216HW,2013-01-13 07:13:00,
2013-01-13 00:14:00,26.6,3.1,29.94,North,0,0.0,0.0,36,0.00,,,0.00,WUHU216HW,2013-01-13 07:14:00,
2013-01-13 00:18:00,26.5,2.9,29.94,North,0,0.0,0.0,36,0.00,,,0.00,WUHU216HW,2013-01-13 07:18:00,
2013-01-13 00:19:00,26.5,2.9,29.94,North,0,0.0,0.0,36,0.00,,,0.00,WUHU216HW,2013-01-13 07:19:00,
2013-01-13 00:23:00,26.3,2.8,29.94,North,0,0.0,0.0,36,0.00,,,0.00,WUHU216HW,2013-01-13 07:23:00,
2013-01-13 00:24:00,26.3,2.8,29.94,North,0,0.0,0.0,36,0.00,,,0.00,WUHU216HW,2013-01-13 07:24:00,
2013-01-13 00:25:00,26.3,2.8,29.94,North,0,0.0,0.0,36,0.00,,,0.00,WUHU216HW,2013-01-13 07:25:00,
2013-01-13 00:29:00,26.1,3.3,29.94,North,0,0.0,0.0,37,0.00,,,0.00,WUHU216HW,2013-01-13 07:29:00,
2013-01-13 00:30:00,26.1,3.3,29.94,North,0,0.0,0.0,37,0.00,,,0.00,WUHU216HW,2013-01-13 07:30:00,
2013-01-13 00:34:00,25.9,3.1,29.94,North,0,0.0,0.0,37,0.00,,,0.00,WUHU216HW,2013-01-13 07:34:00,
2013-01-13 00:35:00,25.9,3.1,29.94,North,0,0.0,0.0,37,0.00,,,0.00,WUHU216HW,2013-01-13 07:35:00,
2013-01-13 00:36:00,25.9,3.1,29.94,North,0,0.0,0.0,37,0.00,,,0.00,WUHU216HW,2013-01-13 07:36:00,
2013-01-13 00:40:00,25.7,2.9,29.94,North,0,0.0,0.0,37,0.00,,,0.00,WUHU216HW,2013-01-13 07:40:00,
2013-01-13 00:41:00,25.7,2.9,29.94,North,0,0.0,0.0,37,0.00,,,0.00,WUHU216HW,2013-01-13 07:41:00,
2013-01-13 00:45:00,25.6,2.8,29.93,North,0,0.0,0.0,37,0.00,,,0.00,WUHU216HW,2013-01-13 07:45:00,
2013-01-13 00:47:00,25.6,2.8,29.93,North,0,0.0,0.0,37,0.00,,,0.00,WUHU216HW,2013-01-13 07:47:00,
2013-01-13 00:48:00,25.6,2.8,29.93,North,0,0.0,0.0,37,0.00,,,0.00,WUHU216HW,2013-01-13 07:48:00,
2013-01-13 00:50:00,25.6,2.8,29.93,North,0,0.0,0.0,37,0.00,,,0.00,WUHU216HW,2013-01-13 07:50:00,
2013-01-13 00:52:00,25.6,2.8,29.94,North,0,0.0,0.0,37,0.00,,,0.00,WUHU216HW,2013-01-13 07:52:00,
2013-01-13 00:53:00,25.6,2.8,29.94,North,0,0.0,0.0,37,0.00,,,0.00,WUHU216HW,2013-01-13 07:53:00,
2013-01-13 00:55:00,25.6,2.8,29.94,North,0,0.0,0.0,37,0.00,,,0.00,WUHU216HW,2013-01-13 07:55:00,
2013-01-13 00:56:00,25.6,2.8,29.94,North,0,0.0,0.0,37,0.00,,,0.00,WUHU216HW,2013-01-13 07:56:00,
2013-01-13 00:57:00,25.6,2.8,29.94,North,0,0.0,0.0,37,0.00,,,0.00,WUHU216HW,2013-01-13 07:57:00,
2013-01-13 00:59:00,25.6,2.8,29.94,North,0,0.0,0.0,37,0.00,,,0.00,WUHU216HW,2013-01-13 07:59:00,
2013-01-13 01:01:00,25.6,2.2,29.94,North,0,0.0,0.0,36,0.00,,,0.00,WUHU216HW,2013-01-13 08:01:00,
2013-01-13 01:04:00,25.6,2.2,29.94,North,0,0.0,0.0,36,0.00,,,0.00,WUHU216HW,2013-01-13 08:04:00,
2013-01-13 01:06:00,25.6,2.2,29.94,North,0,0.0,0.0,36,0.00,,,0.00,WUHU216HW,2013-01-13 08:06:00,
2013-01-13 01:08:00,25.6,2.2,29.94,North,0,0.0,0.0,36,0.00,,,0.00,WUHU216HW,2013-01-13 08:08:00,
2013-01-13 01:09:00,25.6,2.2,29.94,North,0,0.0,0.0,36,0.00,,,0.00,WUHU216HW,2013-01-13 08:09:00,
2013-01-13 01:11:00,25.4,2.0,29.94,North,0,0.0,0.0,36,0.00,,,0.00,WUHU216HW,2013-01-13 08:11:00,
2013-01-13 01:13:00,25.4,2.0,29.93,North,0,0.0,0.0,36,0.00,,,0.00,WUHU216HW,2013-01-13 08:13:00,
2013-01-13 01:14:00,25.4,2.0,29.94,North,0,0.0,0.0,36,0.00,,,0.00,WUHU216HW,2013-01-13 08:14:00,
2013-01-13 01:15:00,25.4,2.0,29.94,North,0,0.0,0.0,36,0.00,,,0.00,WUHU216HW,2013-01-13 08:15:00,
2013-01-13 01:16:00,25.2,1.8,29.94,North,0,0.0,0.0,36,0.00,,,0.00,WUHU216HW,2013-01-13 08:16:00,
2013-01-13 01:18:00,25.2,1.8,29.94,North,0,0.0,0.0,36,0.00,,,0.00,WUHU216HW,2013-01-13 08:18:00,
2013-01-13 01:19:00,25.2,1.8,29.94,North,0,0.0,0.0,36,0.00,,,0.00,WUHU216HW,2013-01-13 08:19:00,
2013-01-13 01:20:00,25.2,1.8,29.94,North,0,0.0,0.0,36,0.00,,,0.00,WUHU216HW,2013-01-13 08:20:00,
2013-01-13 01:22:00,25.2,1.8,29.94,North,0,0.0,0.0,36,0.00,,,0.00,WUHU216HW,2013-01-13 08:22:00,
2013-01-13 01:24:00,25.2,1.8,29.94,North,0,0.0,0.0,36,0.00,,,0.00,WUHU216HW,2013-01-13 08:24:00,
2013-01-13 01:25:00,25.2,1.8,29.94,North,0,0.0,0.0,36,0.00,,,0.00,WUHU216HW,2013-01-13 08:25:00,
2013-01-13 01:26:00,25.2,1.8,29.94,North,0,0.0,0.0,36,0.00,,,0.00,WUHU216HW,2013-01-13 08:26:00,
2013-01-13 01:28:00,25.2,1.8,29.94,North,0,0.0,0.0,36,0.00,,,0.00,WUHU216HW,2013-01-13 08:28:00,
2013-01-13 01:29:00,25.2,1.8,29.94,North,0,0.0,0.0,36,0.00,,,0.00,WUHU216HW,2013-01-13 08:29:00,
2013-01-13 01:30:00,25.0,1.7,29.94,North,0,0.0,0.0,36,0.00,,,0.00,WUHU216HW,2013-01-13 08:30:00,
2013-01-13 01:31:00,25.2,1.8,29.94,North,0,0.0,0.0,36,0.00,,,0.00,WUHU216HW,2013-01-13 08:31:00,
2013-01-13 01:34:00,25.2,1.8,29.94,North,0,0.0,0.0,36,0.00,,,0.00,WUHU216HW,2013-01-13 08:34:00,
2013-01-13 01:35:00,25.2,1.8,29.94,North,0,0.0,0.0,36,0.00,,,0.00,WUHU216HW,2013-01-13 08:35:00,
2013-01-13 01:36:00,25.2,1.8,29.94,North,0,0.0,0.0,36,0.00,,,0.00,WUHU216HW,2013-01-13 08:36:00,
2013-01-13 01:39:00,25.2,1.8,29.94,North,0,0.0,0.0,36,0.00,,,0.00,WUHU216HW,2013-01-13 08:39:00,
2013-01-13 01:40:00,25.2,1.8,29.94,North,0,0.0,0.0,36,0.00,,,0.00,WUHU216HW,2013-01-13 08:40:00,
2013-01-13 01:41:00,25.0,1.7,29.94,North,0,0.0,0.0,36,0.00,,,0.00,WUHU216HW,2013-01-13 08:41:00,
2013-01-13 01:44:00,25.2,1.8,29.94,North,0,0.0,0.0,36,0.00,,,0.00,WUHU216HW,2013-01-13 08:44:00,
2013-01-13 01:46:00,25.0,1.7,29.94,North,0,0.0,0.0,36,0.00,,,0.00,WUHU216HW,2013-01-13 08:46:00,
2013-01-13 01:47:00,25.0,1.7,29.94,North,0,0.0,0.0,36,0.00,,,0.00,WUHU216HW,2013-01-13 08:47:00,
2013-01-13 01:49:00,25.0,1.7,29.94,North,0,0.0,0.0,36,0.00,,,0.00,WUHU216HW,2013-01-13 08:49:00,
2013-01-13 01:52:00,25.0,1.7,29.94,North,0,0.0,0.0,36,0.00,,,0.00,WUHU216HW,2013-01-13 08:52:00,
2013-01-13 01:54:00,24.8,1.5,29.94,North,0,0.0,0.0,36,0.00,,,0.00,WUHU216HW,2013-01-13 08:54:00,
2013-01-13 01:55:00,24.8,1.5,29.94,North,0,0.0,0.0,36,0.00,,,0.00,WUHU216HW,2013-01-13 08:55:00,
2013-01-13 01:58:00,24.8,1.5,29.94,North,0,0.0,0.0,36,0.00,,,0.00,WUHU216HW,2013-01-13 08:58:00,
2013-01-13 02:00:00,24.8,1.5,29.94,North,0,0.0,0.0,36,0.00,,,0.00,WUHU216HW,2013-01-13 09:00:00,
2013-01-13 02:03:00,24.7,1.4,29.94,North,0,0.0,0.0,36,0.00,,,0.00,WUHU216HW,2013-01-13 09:03:00,
2013-01-13 02:04:00,24.7,1.4,29.94,North,0,0.0,0.0,36,0.00,,,0.00,WUHU216HW,2013-01-13 09:04:00,
2013-01-13 02:05:00,24.7,1.4,29.94,North,0,0.0,0.0,36,0.00,,,0.00,WUHU216HW,2013-01-13 09:05:00,
2013-01-13 02:06:00,24.7,1.4,29.94,North,0,0.0,0.0,36,0.00,,,0.00,WUHU216HW,2013-01-13 09:06:00,
2013-01-13 02:08:00,24.5,1.2,29.94,North,0,0.0,0.0,36,0.00,,,0.00,WUHU216HW,2013-01-13 09:08:00,
2013-01-13 02:10:00,24.5,1.2,29.94,North,0,0.0,0.0,36,0.00,,,0.00,WUHU216HW,2013-01-13 09:10:00,
2013-01-13 02:11:00,24.5,1.2,29.94,North,0,0.0,0.0,36,0.00,,,0.00,WUHU216HW,2013-01-13 09:11:00,
2013-01-13 02:13:00,24.5,1.2,29.94,North,0,0.0,0.0,36,0.00,,,0.00,WUHU216HW,2013-01-13 09:13:00,
2013-01-13 02:15:00,24.5,1.2,29.94,North,0,0.0,0.0,36,0.00,,,0.00,WUHU216HW,2013-01-13 09:15:00,
2013-01-13 02:17:00,24.3,1.0,29.94,North,0,0.0,0.0,36,0.00,,,0.00,WUHU216HW,2013-01-13 09:17:00,
2013-01-13 02:19:00,24.3,1.0,29.94,North,0,0.0,0.0,36,0.00,,,0.00,WUHU216HW,2013-01-13 09:19:00,
2013-01-13 02:20:00,24.3,1.0,29.94,North,0,0.0,0.0,36,0.00,,,0.00,WUHU216HW,2013-01-13 09:20:00,
2013-01-13 02:22:00,24.1,0.9,29.94,North,0,0.0,0.0,36,0.00,,,0.00,WUHU216HW,2013-01-13 09:22:00,
2013-01-13 02:23:00,24.1,0.9,29.94,North,0,0.0,0.0,36,0.00,,,0.00,WUHU216HW,2013-01-13 09:23:00,
2013-01-13 02:25:00,24.1,0.9,29.94,North,0,0.0,0.0,36,0.00,,,0.00,WUHU216HW,2013-01-13 09:25:00,
2013-01-13 02:26:00,24.1,0.9,29.94,North,0,0.0,0.0,36,0.00,,,0.00,WUHU216HW,2013-01-13 09:26:00,
2013-01-13 02:28:00,24.1,1.4,29.94,North,0,0.0,0.0,37,0.00,,,0.00,WUHU216HW,2013-01-13 09:28:00,
2013-01-13 02:29:00,24.1,0.9,29.94,North,0,0.0,0.0,36,0.00,,,0.00,WUHU216HW,2013-01-13 09:29:00,
2013-01-13 02:31:00,24.1,1.4,29.94,North,0,0.0,0.0,37,0.00,,,0.00,WUHU216HW,2013-01-13 09:31:00,
2013-01-13 02:33:00,24.1,1.4,29.94,North,0,0.0,0.0,37,0.00,,,0.00,WUHU216HW,2013-01-13 09:33:00,
2013-01-13 02:35:00,24.1,1.4,29.94,North,0,0.0,0.0,37,0.00,,,0.00,WUHU216HW,2013-01-13 09:35:00,
2013-01-13 02:37:00,23.9,1.4,29.95,North,0,0.0,0.0,37,0.00,,,0.00,WUHU216HW,2013-01-13 09:37:00,
2013-01-13 02:38:00,23.9,1.4,29.94,North,0,0.0,0.0,37,0.00,,,0.00,WUHU216HW,2013-01-13 09:38:00,
2013-01-13 02:40:00,23.9,1.4,29.95,North,0,0.0,0.0,37,0.00,,,0.00,WUHU216HW,2013-01-13 09:40:00,
2013-01-13 02:42:00,23.9,1.4,29.94,North,0,0.0,0.0,37,0.00,,,0.00,WUHU216HW,2013-01-13 09:42:00,
2013-01-13 02:44:00,23.9,1.4,29.95,North,0,0.0,0.0,37,0.00,,,0.00,WUHU216HW,2013-01-13 09:44:00,
2013-01-13 02:46:00,23.8,1.2,29.95,North,0,0.0,0.0,37,0.00,,,0.00,WUHU216HW,2013-01-13 09:46:00,
2013-01-13 02:47:00,23.8,1.2,29.94,North,0,0.0,0.0,37,0.00,,,0.00,WUHU216HW,2013-01-13 09:47:00,
2013-01-13 02:49:00,23.6,1.0,29.94,North,0,0.0,0.0,37,0.00,,,0.00,WUHU216HW,2013-01-13 09:49:00,
2013-01-13 02:51:00,23.6,1.0,29.94,North,0,0.0,0.0,37,0.00,,,0.00,WUHU216HW,2013-01-13 09:51:00,
2013-01-13 02:53:00,23.6,1.0,29.94,North,0,0.0,0.0,37,0.00,,,0.00,WUHU216HW,2013-01-13 09:53:00,
2013-01-13 02:54:00,23.6,1.0,29.95,North,0,0.0,0.0,37,0.00,,,0.00,WUHU216HW,2013-01-13 09:54:00,
2013-01-13 02:55:00,23.6,1.0,29.95,North,0,0.0,0.0,37,0.00,,,0.00,WUHU216HW,2013-01-13 09:55:00,
2013-01-13 02:57:00,23.4,0.8,29.94,North,0,0.0,0.0,37,0.00,,,0.00,WUHU216HW,2013-01-13 09:57:00,
2013-01-13 02:59:00,23.4,0.8,29.95,North,0,0.0,0.0,37,0.00,,,0.00,WUHU216HW,2013-01-13 09:59:00,
2013-01-13 03:00:00,23.4,0.8,29.95,North,0,0.0,0.0,37,0.00,,,0.00,WUHU216HW,2013-01-13 10:00:00,
2013-01-13 03:02:00,23.4,0.8,29.95,North,0,0.0,0.0,37,0.00,,,0.00,WUHU216HW,2013-01-13 10:02:00,
2013-01-13 03:05:00,23.4,1.4,29.95,North,0,0.0,0.0,38,0.00,,,0.00,WUHU216HW,2013-01-13 10:05:00,
2013-01-13 03:07:00,23.2,1.3,29.95,North,0,0.0,0.0,38,0.00,,,0.00,WUHU216HW,2013-01-13 10:07:00,
2013-01-13 03:08:00,23.4,1.4,29.95,North,0,0.0,0.0,38,0.00,,,0.00,WUHU216HW,2013-01-13 10:08:00,
2013-01-13 03:11:00,23.2,1.3,29.94,North,0,0.0,0.0,38,0.00,,,0.00,WUHU216HW,2013-01-13 10:11:00,
2013-01-13 03:12:00,23.0,1.1,29.94,North,0,0.0,0.0,38,0.00,,,0.00,WUHU216HW,2013-01-13 10:12:00,
2013-01-13 03:13:00,23.0,1.1,29.94,North,0,0.0,0.0,38,0.00,,,0.00,WUHU216HW,2013-01-13 10:13:00,
2013-01-13 03:16:00,22.9,1.0,29.94,North,0,0.0,0.0,38,0.00,,,0.00,WUHU216HW,2013-01-13 10:16:00,
2013-01-13 03:17:00,22.9,1.0,29.94,North,0,0.0,0.0,38,0.00,,,0.00,WUHU216HW,2013-01-13 10:17:00,
2013-01-13 03:18:00,22.9,1.0,29.94,North,0,0.0,0.0,38,0.00,,,0.00,WUHU216HW,2013-01-13 10:18:00,
2013-01-13 03:22:00,22.7,0.8,29.94,North,0,0.0,0.0,38,0.00,,,0.00,WUHU216HW,2013-01-13 10:22:00,
2013-01-13 03:23:00,22.7,0.8,29.94,North,0,0.0,0.0,38,0.00,,,0.00,WUHU216HW,2013-01-13 10:23:00,
2013-01-13 03:25:00,22.7,0.8,29.94,North,0,0.0,0.0,38,0.00,,,0.00,WUHU216HW,2013-01-13 10:25:00,
2013-01-13 03:28:00,22.7,0.8,29.94,North,0,0.0,0.0,38,0.00,,,0.00,WUHU216HW,2013-01-13 10:28:00,
2013-01-13 03:29:00,22.7,0.8,29.94,North,0,0.0,0.0,38,0.00,,,0.00,WUHU216HW,2013-01-13 10:29:00,
2013-01-13 03:30:00,22.7,0.8,29.94,North,0,0.0,0.0,38,0.00,,,0.00,WUHU216HW,2013-01-13 10:30:00,
2013-01-13 03:34:00,22.7,0.8,29.94,North,0,0.0,0.0,38,0.00,,,0.00,WUHU216HW,2013-01-13 10:34:00,
2013-01-13 03:35:00,22.7,0.8,29.94,North,0,0.0,0.0,38,0.00,,,0.00,WUHU216HW,2013-01-13 10:35:00,
2013-01-13 03:36:00,22.7,0.8,29.94,North,0,0.0,0.0,38,0.00,,,0.00,WUHU216HW,2013-01-13 10:36:00,
2013-01-13 03:39:00,22.7,0.8,29.94,North,0,0.0,0.0,38,0.00,,,0.00,WUHU216HW,2013-01-13 10:39:00,
2013-01-13 03:40:00,22.7,0.8,29.94,North,0,0.0,0.0,38,0.00,,,0.00,WUHU216HW,2013-01-13 10:40:00,
2013-01-13 03:41:00,22.7,0.8,29.94,North,0,0.0,0.0,38,0.00,,,0.00,WUHU216HW,2013-01-13 10:41:00,
2013-01-13 03:44:00,22.7,0.8,29.94,North,0,0.0,0.0,38,0.00,,,0.00,WUHU216HW,2013-01-13 10:44:00,
2013-01-13 03:45:00,22.7,0.8,29.94,North,0,0.0,0.0,38,0.00,,,0.00,WUHU216HW,2013-01-13 10:45:00,
2013-01-13 03:46:00,22.7,0.8,29.94,North,0,0.0,0.0,38,0.00,,,0.00,WUHU216HW,2013-01-13 10:46:00,
2013-01-13 03:47:00,22.7,0.8,29.94,North,0,0.0,0.0,38,0.00,,,0.00,WUHU216HW,2013-01-13 10:47:00,
2013-01-13 03:50:00,22.7,0.8,29.94,North,0,0.0,0.0,38,0.00,,,0.00,WUHU216HW,2013-01-13 10:50:00,
2013-01-13 03:51:00,22.7,0.8,29.94,North,0,0.0,0.0,38,0.00,,,0.00,WUHU216HW,2013-01-13 10:51:00,
2013-01-13 03:52:00,22.7,0.8,29.94,North,0,0.0,0.0,38,0.00,,,0.00,WUHU216HW,2013-01-13 10:52:00,
2013-01-13 03:55:00,22.7,1.5,29.94,North,0,0.0,0.0,39,0.00,,,0.00,WUHU216HW,2013-01-13 10:55:00,
2013-01-13 03:56:00,22.7,1.5,29.94,North,0,0.0,0.0,39,0.00,,,0.00,WUHU216HW,2013-01-13 10:56:00,
2013-01-13 03:57:00,22.7,0.8,29.94,North,0,0.0,0.0,38,0.00,,,0.00,WUHU216HW,2013-01-13 10:57:00,
2013-01-13 04:00:00,22.7,0.8,29.94,North,0,0.0,0.0,38,0.00,,,0.00,WUHU216HW,2013-01-13 11:00:00,
2013-01-13 04:01:00,22.5,0.6,29.94,North,0,0.0,0.0,38,0.00,,,0.00,WUHU216HW,2013-01-13 11:01:00,
2013-01-13 04:02:00,22.5,0.6,29.94,North,0,0.0,0.0,38,0.00,,,0.00,WUHU216HW,2013-01-13 11:02:00,
2013-01-13 04:03:00,22.5,0.6,29.94,North,0,0.0,0.0,38,0.00,,,0.00,WUHU216HW,2013-01-13 11:03:00,
2013-01-13 04:06:00,22.3,0.5,29.94,North,0,0.0,0.0,38,0.00,,,0.00,WUHU216HW,2013-01-13 11:06:00,
2013-01-13 04:07:00,22.3,0.5,29.94,North,0,0.0,0.0,38,0.00,,,0.00,WUHU216HW,2013-01-13 11:07:00,
2013-01-13 04:08:00,22.1,0.3,29.94,North,0,0.0,0.0,38,0.00,,,0.00,WUHU216HW,2013-01-13 11:08:00,
2013-01-13 04:11:00,22.0,1.4,29.94,North,0,0.0,0.0,40,0.00,,,0.00,WUHU216HW,2013-01-13 11:11:00,
2013-01-13 04:12:00,22.0,1.4,29.94,North,0,0.0,0.0,40,0.00,,,0.00,WUHU216HW,2013-01-13 11:12:00,
2013-01-13 04:13:00,22.0,1.4,29.94,North,0,0.0,0.0,40,0.00,,,0.00,WUHU216HW,2013-01-13 11:13:00,
2013-01-13 04:17:00,21.8,1.2,29.93,North,0,0.0,0.0,40,0.00,,,0.00,WUHU216HW,2013-01-13 11:17:00,
2013-01-13 04:18:00,21.8,1.2,29.93,North,0,0.0,0.0,40,0.00,,,0.00,WUHU216HW,2013-01-13 11:18:00,
2013-01-13 04:19:00,21.8,1.2,29.93,North,0,0.0,0.0,40,0.00,,,0.00,WUHU216HW,2013-01-13 11:19:00,
2013-01-13 04:22:00,21.6,1.1,29.93,North,0,0.0,0.0,40,0.00,,,0.00,WUHU216HW,2013-01-13 11:22:00,
2013-01-13 04:23:00,21.6,1.1,29.93,North,0,0.0,0.0,40,0.00,,,0.00,WUHU216HW,2013-01-13 11:23:00,
2013-01-13 04:24:00,21.6,1.1,29.93,North,0,0.0,0.0,40,0.00,,,0.00,WUHU216HW,2013-01-13 11:24:00,
2013-01-13 04:28:00,21.6,0.5,29.93,North,0,0.0,0.0,39,0.00,,,0.00,WUHU216HW,2013-01-13 11:28:00,
2013-01-13 04:29:00,21.6,0.5,29.93,North,0,0.0,0.0,39,0.00,,,0.00,WUHU216HW,2013-01-13 11:29:00,
2013-01-13 04:30:00,21.6,0.5,29.93,North,0,0.0,0.0,39,0.00,,,0.00,WUHU216HW,2013-01-13 11:30:00,
2013-01-13 04:33:00,21.6,0.5,29.93,North,0,0.0,0.0,39,0.00,,,0.00,WUHU216HW,2013-01-13 11:33:00,
2013-01-13 04:35:00,21.6,0.5,29.93,North,0,0.0,0.0,39,0.00,,,0.00,WUHU216HW,2013-01-13 11:35:00,
2013-01-13 04:39:00,21.6,0.5,29.93,North,0,0.0,0.0,39,0.00,,,0.00,WUHU216HW,2013-01-13 11:39:00,
2013-01-13 04:40:00,21.6,0.5,29.93,North,0,0.0,0.0,39,0.00,,,0.00,WUHU216HW,2013-01-13 11:40:00,
2013-01-13 04:41:00,21.6,0.5,29.93,North,0,0.0,0.0,39,0.00,,,0.00,WUHU216HW,2013-01-13 11:41:00,
2013-01-13 04:45:00,21.6,0.5,29.93,North,0,0.0,0.0,39,0.00,,,0.00,WUHU216HW,2013-01-13 11:45:00,
2013-01-13 04:46:00,21.6,0.5,29.93,North,0,0.0,0.0,39,0.00,,,0.00,WUHU216HW,2013-01-13 11:46:00,
2013-01-13 04:51:00,21.6,0.5,29.93,North,0,0.0,0.0,39,0.00,,,0.00,WUHU216HW,2013-01-13 11:51:00,
2013-01-13 04:52:00,21.4,0.3,29.93,North,0,0.0,0.0,39,0.00,,,0.00,WUHU216HW,2013-01-13 11:52:00,
2013-01-13 04:56:00,21.4,0.3,29.93,North,0,0.0,0.0,39,0.00,,,0.00,WUHU216HW,2013-01-13 11:56:00,
2013-01-13 04:57:00,21.4,0.3,29.93,North,0,0.0,0.0,39,0.00,,,0.00,WUHU216HW,2013-01-13 11:57:00,
2013-01-13 04:58:00,21.4,0.3,29.93,North,0,0.0,0.0,39,0.00,,,0.00,WUHU216HW,2013-01-13 11:58:00,
2013-01-13 05:02:00,21.2,0.1,29.93,North,0,0.0,0.0,39,0.00,,,0.00,WUHU216HW,2013-01-13 12:02:00,
2013-01-13 05:03:00,21.2,0.7,29.93,North,0,0.0,0.0,40,0.00,,,0.00,WUHU216HW,2013-01-13 12:03:00,
2013-01-13 05:04:00,21.2,0.7,29.93,North,0,0.0,0.0,40,0.00,,,0.00,WUHU216HW,2013-01-13 12:04:00,
2013-01-13 05:07:00,21.2,0.7,29.94,North,0,0.0,0.0,40,0.00,,,0.00,WUHU216HW,2013-01-13 12:07:00,
2013-01-13 05:08:00,21.2,0.7,29.93,North,0,0.0,0.0,40,0.00,,,0.00,WUHU216HW,2013-01-13 12:08:00,
2013-01-13 05:09:00,21.2,0.7,29.93,North,0,0.0,0.0,40,0.00,,,0.00,WUHU216HW,2013-01-13 12:09:00,
2013-01-13 05:13:00,21.2,0.7,29.93,North,0,0.0,0.0,40,0.00,,,0.00,WUHU216HW,2013-01-13 12:13:00,
2013-01-13 05:15:00,21.2,0.7,29.93,North,0,0.0,0.0,40,0.00,,,0.00,WUHU216HW,2013-01-13 12:15:00,
2013-01-13 05:18:00,21.1,1.0,29.94,North,0,0.0,0.0,41,0.00,,,0.00,WUHU216HW,2013-01-13 12:18:00,
2013-01-13 05:20:00,21.1,1.0,29.94,North,0,0.0,0.0,41,0.00,,,0.00,WUHU216HW,2013-01-13 12:20:00,
2013-01-13 05:23:00,20.7,0.7,29.94,North,0,0.0,0.0,41,0.00,,,0.00,WUHU216HW,2013-01-13 12:23:00,
2013-01-13 05:24:00,20.7,0.7,29.94,North,0,0.0,0.0,41,0.00,,,0.00,WUHU216HW,2013-01-13 12:24:00,
2013-01-13 05:25:00,20.7,0.7,29.94,North,0,0.0,0.0,41,0.00,,,0.00,WUHU216HW,2013-01-13 12:25:00,
2013-01-13 05:26:00,20.7,0.7,29.94,North,0,0.0,0.0,41,0.00,,,0.00,WUHU216HW,2013-01-13 12:26:00,
2013-01-13 05:29:00,20.5,1.0,29.94,North,0,0.0,0.0,42,0.00,,,0.00,WUHU216HW,2013-01-13 12:29:00,
2013-01-13 05:30:00,20.3,0.8,29.94,North,0,0.0,0.0,42,0.00,,,0.00,WUHU216HW,2013-01-13 12:30:00,
2013-01-13 05:31:00,20.3,0.8,29.94,North,0,0.0,0.0,42,0.00,,,0.00,WUHU216HW,2013-01-13 12:31:00,
2013-01-13 05:33:00,20.3,0.8,29.94,North,0,0.0,0.0,42,0.00,,,0.00,WUHU216HW,2013-01-13 12:33:00,
2013-01-13 05:34:00,20.3,0.8,29.94,North,0,0.0,0.0,42,0.00,,,0.00,WUHU216HW,2013-01-13 12:34:00,
2013-01-13 05:35:00,20.3,1.4,29.94,North,0,0.0,0.0,43,0.00,,,0.00,WUHU216HW,2013-01-13 12:35:00,
2013-01-13 05:37:00,20.5,1.4,29.94,North,0,0.0,0.0,43,0.00,,,0.00,WUHU216HW,2013-01-13 12:37:00,
2013-01-13 05:39:00,20.5,1.4,29.94,North,0,0.0,0.0,43,0.00,,,0.00,WUHU216HW,2013-01-13 12:39:00,
2013-01-13 05:40:00,20.5,1.4,29.94,North,0,0.0,0.0,43,0.00,,,0.00,WUHU216HW,2013-01-13 12:40:00,
2013-01-13 05:42:00,20.5,1.0,29.94,North,0,0.0,0.0,42,0.00,,,0.00,WUHU216HW,2013-01-13 12:42:00,
2013-01-13 05:44:00,20.5,1.0,29.94,North,0,0.0,0.0,42,0.00,,,0.00,WUHU216HW,2013-01-13 12:44:00,
2013-01-13 05:45:00,20.5,1.0,29.94,North,0,0.0,0.0,42,0.00,,,0.00,WUHU216HW,2013-01-13 12:45:00,
2013-01-13 05:46:00,20.5,1.0,29.94,North,0,0.0,0.0,42,0.00,,,0.00,WUHU216HW,2013-01-13 12:46:00,
2013-01-13 05:47:00,20.5,1.0,29.94,North,0,0.0,0.0,42,0.00,,,0.00,WUHU216HW,2013-01-13 12:47:00,
2013-01-13 05:50:00,20.5,1.0,29.94,North,0,0.0,0.0,42,0.00,,,0.00,WUHU216HW,2013-01-13 12:50:00,
2013-01-13 05:51:00,20.5,1.0,29.94,North,0,0.0,0.0,42,0.00,,,0.00,WUHU216HW,2013-01-13 12:51:00,
2013-01-13 05:52:00,20.5,1.0,29.94,North,0,0.0,0.0,42,0.00,,,0.00,WUHU216HW,2013-01-13 12:52:00,
2013-01-13 05:55:00,20.5,1.0,29.94,North,0,0.0,0.0,42,0.00,,,0.00,WUHU216HW,2013-01-13 12:55:00,
2013-01-13 05:56:00,20.5,1.0,29.94,North,0,0.0,0.0,42,0.00,,,0.00,WUHU216HW,2013-01-13 12:56:00,
2013-01-13 05:57:00,20.5,1.0,29.94,North,0,0.0,0.0,42,0.00,,,0.00,WUHU216HW,2013-01-13 12:57:00,
2013-01-13 06:00:00,20.5,0.5,29.94,North,0,0.0,0.0,41,0.00,,,0.00,WUHU216HW,2013-01-13 13:00:00,
2013-01-13 06:01:00,20.5,0.5,29.95,North,0,0.0,0.0,41,0.00,,,0.00,WUHU216HW,2013-01-13 13:01:00,
2013-01-13 06:02:00,20.5,0.5,29.95,North,0,0.0,0.0,41,0.00,,,0.00,WUHU216HW,2013-01-13 13:02:00,
2013-01-13 06:06:00,20.3,0.8,29.95,North,0,0.0,0.0,42,0.00,,,0.00,WUHU216HW,2013-01-13 13:06:00,
2013-01-13 06:07:00,20.3,0.8,29.95,North,0,0.0,0.0,42,0.00,,,0.00,WUHU216HW,2013-01-13 13:07:00,
2013-01-13 06:09:00,20.3,0.8,29.94,North,0,0.0,0.0,42,0.00,,,0.00,WUHU216HW,2013-01-13 13:09:00,
2013-01-13 06:11:00,20.2,0.7,29.95,North,0,0.0,0.0,42,0.00,,,0.00,WUHU216HW,2013-01-13 13:11:00,
2013-01-13 06:12:00,20.2,0.7,29.95,North,0,0.0,0.0,42,0.00,,,0.00,WUHU216HW,2013-01-13 13:12:00,
2013-01-13 06:13:00,20.2,0.7,29.95,North,0,0.0,0.0,42,0.00,,,0.00,WUHU216HW,2013-01-13 13:13:00,
2013-01-13 06:15:00,20.2,0.7,29.95,North,0,0.0,0.0,42,0.00,,,0.00,WUHU216HW,2013-01-13 13:15:00,
2013-01-13 06:17:00,20.2,0.7,29.96,North,0,0.0,0.0,42,0.00,,,0.00,WUHU216HW,2013-01-13 13:17:00,
2013-01-13 06:19:00,20.2,0.7,29.96,North,0,0.0,0.0,42,0.00,,,0.00,WUHU216HW,2013-01-13 13:19:00,
2013-01-13 06:21:00,20.2,0.7,29.96,North,0,0.0,0.0,42,0.00,,,0.00,WUHU216HW,2013-01-13 13:21:00,
2013-01-13 06:22:00,20.2,0.7,29.96,North,0,0.0,0.0,42,0.00,,,0.00,WUHU216HW,2013-01-13 13:22:00,
2013-01-13 06:23:00,20.2,0.7,29.96,North,0,0.0,0.0,42,0.00,,,0.00,WUHU216HW,2013-01-13 13:23:00,
2013-01-13 06:24:00,20.2,0.7,29.96,North,0,0.0,0.0,42,0.00,,,0.00,WUHU216HW,2013-01-13 13:24:00,
2013-01-13 06:27:00,20.0,0.6,29.96,North,0,0.0,0.0,42,0.00,,,0.00,WUHU216HW,2013-01-13 13:27:00,
2013-01-13 06:28:00,20.0,0.6,29.96,North,0,0.0,0.0,42,0.00,,,0.00,WUHU216HW,2013-01-13 13:28:00,
2013-01-13 06:29:00,20.0,0.6,29.96,North,0,0.0,0.0,42,0.00,,,0.00,WUHU216HW,2013-01-13 13:29:00,
2013-01-13 06:32:00,19.8,0.4,29.96,North,0,0.0,0.0,42,0.00,,,0.00,WUHU216HW,2013-01-13 13:32:00,
2013-01-13 06:34:00,19.8,0.4,29.96,North,0,0.0,0.0,42,0.00,,,0.00,WUHU216HW,2013-01-13 13:34:00,
2013-01-13 06:35:00,19.8,0.4,29.96,North,0,0.0,0.0,42,0.00,,,0.00,WUHU216HW,2013-01-13 13:35:00,
2013-01-13 06:38:00,19.8,0.8,29.96,North,0,0.0,0.0,43,0.00,,,0.00,WUHU216HW,2013-01-13 13:38:00,
2013-01-13 06:39:00,19.8,0.8,29.96,North,0,0.0,0.0,43,0.00,,,0.00,WUHU216HW,2013-01-13 13:39:00,
2013-01-13 06:40:00,19.8,0.8,29.96,North,0,0.0,0.0,43,0.00,,,0.00,WUHU216HW,2013-01-13 13:40:00,
2013-01-13 06:43:00,19.4,0.0,29.96,North,0,0.0,0.0,42,0.00,,,0.00,WUHU216HW,2013-01-13 13:43:00,
2013-01-13 06:44:00,19.3,-0.1,29.96,North,0,0.0,0.0,42,0.00,,,0.00,WUHU216HW,2013-01-13 13:44:00,
2013-01-13 06:46:00,19.1,0.2,29.96,North,0,0.0,0.0,43,0.00,,,0.00,WUHU216HW,2013-01-13 13:46:00,
2013-01-13 06:48:00,19.1,0.2,29.96,North,0,0.0,0.0,43,0.00,,,0.00,WUHU216HW,2013-01-13 13:48:00,
2013-01-13 06:49:00,19.1,0.2,29.96,North,0,0.0,0.0,43,0.00,,,0.00,WUHU216HW,2013-01-13 13:49:00,
2013-01-13 06:50:00,19.1,-0.3,29.96,North,0,0.0,0.0,42,0.00,,,0.00,WUHU216HW,2013-01-13 13:50:00,
2013-01-13 06:52:00,18.9,-0.4,29.96,North,0,0.0,0.0,42,0.00,,,0.00,WUHU216HW,2013-01-13 13:52:00,
2013-01-13 06:53:00,18.9,0.0,29.96,North,0,0.0,0.0,43,0.00,,,0.00,WUHU216HW,2013-01-13 13:53:00,
2013-01-13 06:55:00,18.9,0.0,29.96,North,0,0.0,0.0,43,0.00,,,0.00,WUHU216HW,2013-01-13 13:55:00,
2013-01-13 06:57:00,18.7,0.8,29.96,North,0,0.0,0.0,45,0.00,,,0.00,WUHU216HW,2013-01-13 13:57:00,
2013-01-13 06:58:00,18.7,0.8,29.96,North,0,0.0,0.0,45,0.00,,,0.00,WUHU216HW,2013-01-13 13:58:00,
2013-01-13 07:00:00,18.7,0.8,29.96,North,0,0.0,0.0,45,0.00,,,0.00,WUHU216HW,2013-01-13 14:00:00,
2013-01-13 07:02:00,18.7,0.4,29.96,North,0,0.0,0.0,44,0.00,,,0.00,WUHU216HW,2013-01-13 14:02:00,
2013-01-13 07:03:00,18.7,0.4,29.96,North,0,0.0,0.0,44,0.00,,,0.00,WUHU216HW,2013-01-13 14:03:00,
2013-01-13 07:04:00,18.7,0.4,29.97,North,0,0.0,0.0,44,0.00,,,0.00,WUHU216HW,2013-01-13 14:04:00,
2013-01-13 07:05:00,18.7,0.4,29.97,North,0,0.0,0.0,44,0.00,,,0.00,WUHU216HW,2013-01-13 14:05:00,
2013-01-13 07:08:00,18.7,0.4,29.97,North,0,0.0,0.0,44,0.00,,,0.00,WUHU216HW,2013-01-13 14:08:00,
2013-01-13 07:09:00,18.7,0.4,29.97,North,0,0.0,0.0,44,0.00,,,0.00,WUHU216HW,2013-01-13 14:09:00,
2013-01-13 07:10:00,18.7,0.4,29.97,North,0,0.0,0.0,44,0.00,,,0.00,WUHU216HW,2013-01-13 14:10:00,
2013-01-13 07:12:00,18.7,0.4,29.96,North,0,0.0,0.0,44,0.00,,,0.00,WUHU216HW,2013-01-13 14:12:00,
2013-01-13 07:14:00,18.5,0.2,29.97,North,0,0.0,0.0,44,0.00,,,0.00,WUHU216HW,2013-01-13 14:14:00,
2013-01-13 07:15:00,18.7,0.4,29.97,North,0,0.0,0.0,44,0.00,,,0.00,WUHU216HW,2013-01-13 14:15:00,
2013-01-13 07:18:00,18.5,0.2,29.97,North,0,0.0,0.0,44,0.00,,,0.00,WUHU216HW,2013-01-13 14:18:00,
2013-01-13 07:19:00,18.5,0.2,29.97,North,0,0.0,0.0,44,0.00,,,0.00,WUHU216HW,2013-01-13 14:19:00,
2013-01-13 07:20:00,18.5,0.2,29.97,North,0,0.0,0.0,44,0.00,,,0.00,WUHU216HW,2013-01-13 14:20:00,
2013-01-13 07:21:00,18.5,0.2,29.97,North,0,0.0,0.0,44,0.00,,,0.00,WUHU216HW,2013-01-13 14:21:00,
2013-01-13 07:24:00,18.4,0.0,29.97,North,0,0.0,0.0,44,0.00,,,0.00,WUHU216HW,2013-01-13 14:24:00,
2013-01-13 07:25:00,18.4,0.0,29.97,North,0,0.0,0.0,44,0.00,,,0.00,WUHU216HW,2013-01-13 14:25:00,
2013-01-13 07:27:00,18.4,0.0,29.97,North,0,0.0,0.0,44,0.00,,,0.00,WUHU216HW,2013-01-13 14:27:00,
2013-01-13 07:30:00,18.4,0.0,29.97,North,0,0.0,0.0,44,0.00,,,0.00,WUHU216HW,2013-01-13 14:30:00,
2013-01-13 07:31:00,18.4,0.0,29.97,North,0,0.0,0.0,44,0.00,,,0.00,WUHU216HW,2013-01-13 14:31:00,
2013-01-13 07:33:00,18.4,0.0,29.97,North,0,0.0,0.0,44,0.00,,,0.00,WUHU216HW,2013-01-13 14:33:00,
2013-01-13 07:36:00,18.4,0.0,29.97,North,0,0.0,0.0,44,0.00,,,0.00,WUHU216HW,2013-01-13 14:36:00,
2013-01-13 07:38:00,18.4,0.0,29.97,North,0,0.0,0.0,44,0.00,,,0.00,WUHU216HW,2013-01-13 14:38:00,
2013-01-13 07:41:00,18.4,0.0,29.97,North,0,0.0,0.0,44,0.00,,,0.00,WUHU216HW,2013-01-13 14:41:00,
2013-01-13 07:42:00,18.4,0.0,29.97,North,0,0.0,0.0,44,0.00,,,0.00,WUHU216HW,2013-01-13 14:42:00,
2013-01-13 07:43:00,18.4,0.0,29.97,North,0,0.0,0.0,44,0.00,,,0.00,WUHU216HW,2013-01-13 14:43:00,
2013-01-13 07:46:00,18.4,0.0,29.97,North,0,0.0,0.0,44,0.00,,,0.00,WUHU216HW,2013-01-13 14:46:00,
2013-01-13 07:47:00,18.4,0.0,29.97,North,0,0.0,0.0,44,0.00,,,0.00,WUHU216HW,2013-01-13 14:47:00,
2013-01-13 07:49:00,18.4,0.5,29.97,North,0,0.0,0.0,45,0.00,,,0.00,WUHU216HW,2013-01-13 14:49:00,
2013-01-13 07:51:00,18.4,0.5,29.97,North,0,0.0,0.0,45,0.00,,,0.00,WUHU216HW,2013-01-13 14:51:00,
2013-01-13 07:52:00,18.4,0.5,29.97,North,0,0.0,0.0,45,0.00,,,0.00,WUHU216HW,2013-01-13 14:52:00,
2013-01-13 07:54:00,18.4,0.5,29.97,North,0,0.0,0.0,45,0.00,,,0.00,WUHU216HW,2013-01-13 14:54:00,
2013-01-13 07:55:00,18.4,0.5,29.97,North,0,0.0,0.0,45,0.00,,,0.00,WUHU216HW,2013-01-13 14:55:00,
2013-01-13 07:58:00,18.4,0.5,29.97,North,0,0.0,0.0,45,0.00,,,0.00,WUHU216HW,2013-01-13 14:58:00,
2013-01-13 07:59:00,18.4,0.5,29.97,North,0,0.0,0.0,45,0.00,,,0.00,WUHU216HW,2013-01-13 14:59:00,
2013-01-13 08:00:00,18.4,0.5,29.97,North,0,0.0,0.0,45,0.00,,,0.00,WUHU216HW,2013-01-13 15:00:00,
2013-01-13 08:01:00,18.4,0.5,29.97,North,0,0.0,0.0,45,0.00,,,0.00,WUHU216HW,2013-01-13 15:01:00,
2013-01-13 08:03:00,18.4,0.5,29.97,North,0,0.0,0.0,45,0.00,,,0.00,WUHU216HW,2013-01-13 15:03:00,
2013-01-13 08:05:00,18.4,0.5,29.97,North,0,0.0,0.0,45,0.00,,,0.00,WUHU216HW,2013-01-13 15:05:00,
2013-01-13 08:06:00,18.4,0.5,29.97,North,0,0.0,0.0,45,0.00,,,0.00,WUHU216HW,2013-01-13 15:06:00,
2013-01-13 08:08:00,18.4,0.5,29.97,North,0,0.0,0.0,45,0.00,,,0.00,WUHU216HW,2013-01-13 15:08:00,
2013-01-13 08:30:00,20.0,1.4,29.98,North,0,0.0,0.0,44,0.00,,,0.00,WUHU216HW,2013-01-13 15:30:00,
2013-01-13 08:31:00,20.0,1.4,29.98,North,0,0.0,0.0,44,0.00,,,0.00,WUHU216HW,2013-01-13 15:31:00,
2013-01-13 08:35:00,20.0,1.4,29.98,North,0,0.0,0.0,44,0.00,,,0.00,WUHU216HW,2013-01-13 15:35:00,
2013-01-13 08:36:00,20.0,1.4,29.98,North,0,0.0,0.0,44,0.00,,,0.00,WUHU216HW,2013-01-13 15:36:00,
2013-01-13 09:00:00,22.5,3.3,29.98,North,0,0.0,0.0,43,0.00,,,0.00,WUHU216HW,2013-01-13 16:00:00,
2013-01-13 09:01:00,22.5,3.3,29.98,North,0,0.0,0.0,43,0.00,,,0.00,WUHU216HW,2013-01-13 16:01:00,
2013-01-13 09:05:00,22.5,3.3,29.98,North,0,0.0,0.0,43,0.00,,,0.00,WUHU216HW,2013-01-13 16:05:00,
2013-01-13 09:06:00,22.5,3.3,29.98,North,0,0.0,0.0,43,0.00,,,0.00,WUHU216HW,2013-01-13 16:06:00,
2013-01-13 09:30:00,23.6,3.3,29.99,North,0,0.0,0.0,41,0.00,,,0.00,WUHU216HW,2013-01-13 16:30:00,
2013-01-13 09:31:00,23.6,3.3,29.99,North,0,0.0,0.0,41,0.00,,,0.00,WUHU216HW,2013-01-13 16:31:00,
2013-01-13 09:35:00,23.6,3.3,29.99,North,0,0.0,0.0,41,0.00,,,0.00,WUHU216HW,2013-01-13 16:35:00,
2013-01-13 09:36:00,23.6,3.3,29.99,North,0,0.0,0.0,41,0.00,,,0.00,WUHU216HW,2013-01-13 16:36:00,
2013-01-13 09:37:00,23.6,3.3,29.99,North,0,0.0,0.0,41,0.00,,,0.00,WUHU216HW,2013-01-13 16:37:00,
2013-01-13 10:00:00,25.2,3.1,29.99,North,0,0.0,0.0,38,0.00,,,0.00,WUHU216HW,2013-01-13 17:00:00,
2013-01-13 10:05:00,25.4,3.3,29.99,North,0,0.0,0.0,38,0.00,,,0.00,WUHU216HW,2013-01-13 17:05:00,
2013-01-13 10:06:00,25.4,3.3,29.99,North,0,0.0,0.0,38,0.00,,,0.00,WUHU216HW,2013-01-13 17:06:00,
2013-01-13 10:07:00,25.4,3.3,29.99,North,0,0.0,0.0,38,0.00,,,0.00,WUHU216HW,2013-01-13 17:07:00,
2013-01-13 10:30:00,28.4,4.7,29.98,North,0,0.0,0.0,36,0.00,,,0.00,WUHU216HW,2013-01-13 17:30:00,
2013-01-13 10:31:00,28.4,4.7,29.98,North,0,0.0,0.0,36,0.00,,,0.00,WUHU216HW,2013-01-13 17:31:00,
2013-01-13 10:33:00,28.4,4.7,29.98,North,0,0.0,0.0,36,0.00,,,0.00,WUHU216HW,2013-01-13 17:33:00,
2013-01-13 10:36:00,28.4,4.7,29.98,North,0,0.0,0.0,36,0.00,,,0.00,WUHU216HW,2013-01-13 17:36:00,
2013-01-13 10:39:00,28.4,4.7,29.98,North,0,0.0,0.0,36,0.00,,,0.00,WUHU216HW,2013-01-13 17:39:00,
2013-01-13 11:00:00,29.9,4.1,29.96,North,0,0.0,0.0,33,0.00,,,0.00,WUHU216HW,2013-01-13 18:00:00,
2013-01-13 11:05:00,29.9,4.1,29.96,North,0,0.0,0.0,33,0.00,,,0.00,WUHU216HW,2013-01-13 18:05:00,
2013-01-13 11:06:00,29.9,4.1,29.96,North,0,0.0,0.0,33,0.00,,,0.00,WUHU216HW,2013-01-13 18:06:00,
2013-01-13 11:30:00,32.0,4.8,29.95,North,0,0.0,0.0,31,0.00,,,0.00,WUHU216HW,2013-01-13 18:30:00,
2013-01-13 11:31:00,32.0,4.8,29.95,North,0,0.0,0.0,31,0.00,,,0.00,WUHU216HW,2013-01-13 18:31:00,
2013-01-13 11:35:00,32.0,4.8,29.95,North,0,0.0,0.0,31,0.00,,,0.00,WUHU216HW,2013-01-13 18:35:00,
2013-01-13 11:36:00,32.0,4.8,29.95,North,0,0.0,0.0,31,0.00,,,0.00,WUHU216HW,2013-01-13 18:36:00,
2013-01-13 12:00:00,33.3,4.4,29.92,North,0,0.0,0.0,29,0.00,,,0.00,WUHU216HW,2013-01-13 19:00:00,
2013-01-13 12:01:00,33.3,4.4,29.92,North,0,0.0,0.0,29,0.00,,,0.00,WUHU216HW,2013-01-13 19:01:00,
2013-01-13 12:04:00,33.3,4.4,29.92,North,0,0.0,0.0,29,0.00,,,0.00,WUHU216HW,2013-01-13 19:04:00,
2013-01-13 12:05:00,33.3,4.4,29.92,North,0,0.0,0.0,29,0.00,,,0.00,WUHU216HW,2013-01-13 19:05:00,
2013-01-13 12:06:00,33.3,4.4,29.92,North,0,0.0,0.0,29,0.00,,,0.00,WUHU216HW,2013-01-13 19:06:00,
2013-01-13 12:30:00,34.0,4.1,29.90,North,0,0.0,0.0,28,0.00,,,0.00,WUHU216HW,2013-01-13 19:30:00,
2013-01-13 12:31:00,34.0,4.1,29.90,North,0,0.0,0.0,28,0.00,,,0.00,WUHU216HW,2013-01-13 19:31:00,
2013-01-13 12:35:00,34.0,4.1,29.90,North,0,0.0,0.0,28,0.00,,,0.00,WUHU216HW,2013-01-13 19:35:00,
2013-01-13 12:36:00,34.0,4.1,29.90,North,0,0.0,0.0,28,0.00,,,0.00,WUHU216HW,2013-01-13 19:36:00,
2013-01-13 12:37:00,34.0,4.1,29.90,North,0,0.0,0.0,28,0.00,,,0.00,WUHU216HW,2013-01-13 19:37:00,
2013-01-13 13:00:00,34.2,3.4,29.89,North,0,0.0,0.0,27,0.00,,,0.00,WUHU216HW,2013-01-13 20:00:00,
2013-01-13 13:01:00,34.4,3.6,29.89,North,0,0.0,0.0,27,0.00,,,0.00,WUHU216HW,2013-01-13 20:01:00,
2013-01-13 13:05:00,34.4,3.6,29.89,North,0,0.0,0.0,27,0.00,,,0.00,WUHU216HW,2013-01-13 20:05:00,
2013-01-13 13:06:00,34.4,3.6,29.89,North,0,0.0,0.0,27,0.00,,,0.00,WUHU216HW,2013-01-13 20:06:00,
2013-01-13 13:07:00,34.4,3.6,29.89,North,0,0.0,0.0,27,0.00,,,0.00,WUHU216HW,2013-01-13 20:07:00,
2013-01-13 13:30:00,35.1,4.1,29.87,North,0,0.0,0.0,27,0.00,,,0.00,WUHU216HW,2013-01-13 20:30:00,
2013-01-13 13:31:00,35.1,4.1,29.87,North,0,0.0,0.0,27,0.00,,,0.00,WUHU216HW,2013-01-13 20:31:00,
2013-01-13 13:32:00,35.1,4.1,29.87,North,0,0.0,0.0,27,0.00,,,0.00,WUHU216HW,2013-01-13 20:32:00,
2013-01-13 13:35:00,35.1,4.1,29.87,North,0,0.0,0.0,27,0.00,,,0.00,WUHU216HW,2013-01-13 20:35:00,
2013-01-13 13:36:00,35.1,4.1,29.87,North,0,0.0,0.0,27,0.00,,,0.00,WUHU216HW,2013-01-13 20:36:00,
2013-01-13 13:37:00,35.1,4.1,29.87,North,0,0.0,0.0,27,0.00,,,0.00,WUHU216HW,2013-01-13 20:37:00,
2013-01-13 14:00:00,36.0,4.1,29.86,North,0,0.0,0.0,26,0.00,,,0.00,WUHU216HW,2013-01-13 21:00:00,
2013-01-13 14:01:00,36.0,4.1,29.86,North,0,0.0,0.0,26,0.00,,,0.00,WUHU216HW,2013-01-13 21:01:00,
2013-01-13 14:05:00,36.0,4.1,29.86,North,0,0.0,0.0,26,0.00,,,0.00,WUHU216HW,2013-01-13 21:05:00,
2013-01-13 14:06:00,36.0,4.1,29.86,North,0,0.0,0.0,26,0.00,,,0.00,WUHU216HW,2013-01-13 21:06:00,
2013-01-13 14:07:00,36.0,4.1,29.86,North,0,0.0,0.0,26,0.00,,,0.00,WUHU216HW,2013-01-13 21:07:00,
2013-01-13 14:30:00,36.9,4.0,29.86,North,0,0.0,0.0,25,0.00,,,0.00,WUHU216HW,2013-01-13 21:30:00,
2013-01-13 14:31:00,37.1,3.3,29.86,North,0,0.0,0.0,24,0.00,,,0.00,WUHU216HW,2013-01-13 21:31:00,
2013-01-13 14:36:00,37.1,3.3,29.86,North,0,0.0,0.0,24,0.00,,,0.00,WUHU216HW,2013-01-13 21:36:00,
2013-01-13 14:37:00,37.1,3.3,29.86,North,0,0.0,0.0,24,0.00,,,0.00,WUHU216HW,2013-01-13 21:37:00,
2013-01-13 15:00:00,37.1,4.2,29.86,North,0,0.0,0.0,25,0.00,,,0.00,WUHU216HW,2013-01-13 22:00:00,
2013-01-13 15:05:00,37.1,4.2,29.86,North,0,0.0,0.0,25,0.00,,,0.00,WUHU216HW,2013-01-13 22:05:00,
2013-01-13 15:06:00,37.1,4.2,29.86,North,0,0.0,0.0,25,0.00,,,0.00,WUHU216HW,2013-01-13 22:06:00,
2013-01-13 15:30:00,37.3,3.4,29.86,North,0,0.0,0.0,24,0.00,,,0.00,WUHU216HW,2013-01-13 22:30:00,
2013-01-13 15:31:00,37.3,3.4,29.86,North,0,0.0,0.0,24,0.00,,,0.00,WUHU216HW,2013-01-13 22:31:00,
2013-01-13 15:36:00,37.3,3.4,29.86,North,0,0.0,0.0,24,0.00,,,0.00,WUHU216HW,2013-01-13 22:36:00,
2013-01-13 16:00:00,37.8,3.9,29.86,North,0,0.0,0.0,24,0.00,,,0.00,WUHU216HW,2013-01-13 23:00:00,
2013-01-13 16:01:00,37.8,3.9,29.86,North,0,0.0,0.0,24,0.00,,,0.00,WUHU216HW,2013-01-13 23:01:00,
2013-01-13 16:05:00,37.8,3.9,29.86,North,0,0.0,0.0,24,0.00,,,0.00,WUHU216HW,2013-01-13 23:05:00,
2013-01-13 16:06:00,37.8,3.9,29.86,North,0,0.0,0.0,24,0.00,,,0.00,WUHU216HW,2013-01-13 23:06:00,
2013-01-13 16:07:00,37.8,3.9,29.86,North,0,0.0,0.0,24,0.00,,,0.00,WUHU216HW,2013-01-13 23:07:00,
2013-01-13 16:30:00,37.6,3.7,29.85,North,0,0.0,0.0,24,0.00,,,0.00,WUHU216HW,2013-01-13 23:30:00,
2013-01-13 16:31:00,37.6,3.7,29.85,North,0,0.0,0.0,24,0.00,,,0.00,WUHU216HW,2013-01-13 23:31:00,
2013-01-13 16:36:00,37.6,3.7,29.85,North,0,0.0,0.0,24,0.00,,,0.00,WUHU216HW,2013-01-13 23:36:00,
2013-01-13 16:37:00,37.6,3.7,29.85,North,0,0.0,0.0,24,0.00,,,0.00,WUHU216HW,2013-01-13 23:37:00,
2013-01-13 17:00:00,37.3,3.4,29.85,North,0,0.0,0.0,24,0.00,,,0.00,WUHU216HW,2013-01-14 00:00:00,
2013-01-13 17:01:00,37.3,3.4,29.85,North,0,0.0,0.0,24,0.00,,,0.00,WUHU216HW,2013-01-14 00:01:00,
2013-01-13 17:05:00,37.3,3.4,29.85,North,0,0.0,0.0,24,0.00,,,0.00,WUHU216HW,2013-01-14 00:05:00,
2013-01-13 17:06:00,37.3,3.4,29.85,North,0,0.0,0.0,24,0.00,,,0.00,WUHU216HW,2013-01-14 00:06:00,
2013-01-13 17:07:00,37.3,3.4,29.85,North,0,0.0,0.0,24,0.00,,,0.00,WUHU216HW,2013-01-14 00:07:00,
2013-01-13 17:30:00,35.8,3.9,29.86,North,0,0.0,0.0,26,0.00,,,0.00,WUHU216HW,2013-01-14 00:30:00,
2013-01-13 17:31:00,35.8,3.9,29.86,North,0,0.0,0.0,26,0.00,,,0.00,WUHU216HW,2013-01-14 00:31:00,
2013-01-13 17:35:00,35.8,3.9,29.86,North,0,0.0,0.0,26,0.00,,,0.00,WUHU216HW,2013-01-14 00:35:00,
2013-01-13 17:36:00,35.8,3.9,29.86,North,0,0.0,0.0,26,0.00,,,0.00,WUHU216HW,2013-01-14 00:36:00,
2013-01-13 17:39:00,35.8,3.9,29.86,North,0,0.0,0.0,26,0.00,,,0.00,WUHU216HW,2013-01-14 00:39:00,
2013-01-13 18:00:00,33.5,3.7,29.86,North,0,0.0,0.0,28,0.00,,,0.00,WUHU216HW,2013-01-14 01:00:00,
2013-01-13 18:01:00,33.5,3.7,29.86,North,0,0.0,0.0,28,0.00,,,0.00,WUHU216HW,2013-01-14 01:01:00,
2013-01-13 18:05:00,33.5,3.7,29.86,North,0,0.0,0.0,28,0.00,,,0.00,WUHU216HW,2013-01-14 01:05:00,
2013-01-13 18:06:00,33.5,3.7,29.86,North,0,0.0,0.0,28,0.00,,,0.00,WUHU216HW,2013-01-14 01:06:00,
2013-01-13 18:07:00,33.5,3.7,29.86,North,0,0.0,0.0,28,0.00,,,0.00,WUHU216HW,2013-01-14 01:07:00,
2013-01-13 18:30:00,32.4,3.6,29.85,North,0,0.0,0.0,29,0.00,,,0.00,WUHU216HW,2013-01-14 01:30:00,
2013-01-13 18:31:00,32.4,3.6,29.85,North,0,0.0,0.0,29,0.00,,,0.00,WUHU216HW,2013-01-14 01:31:00,
2013-01-13 18:33:00,32.4,3.6,29.85,North,0,0.0,0.0,29,0.00,,,0.00,WUHU216HW,2013-01-14 01:33:00,
2013-01-13 18:35:00,32.4,3.6,29.85,North,0,0.0,0.0,29,0.00,,,0.00,WUHU216HW,2013-01-14 01:35:00,
2013-01-13 18:36:00,32.4,3.6,29.85,North,0,0.0,0.0,29,0.00,,,0.00,WUHU216HW,2013-01-14 01:36:00,
2013-01-13 18:38:00,32.4,3.6,29.85,North,0,0.0,0.0,29,0.00,,,0.00,WUHU216HW,2013-01-14 01:38:00,
2013-01-13 19:00:00,32.0,3.2,29.86,North,0,0.0,0.0,29,0.00,,,0.00,WUHU216HW,2013-01-14 02:00:00,
2013-01-13 19:05:00,32.0,3.2,29.86,North,0,0.0,0.0,29,0.00,,,0.00,WUHU216HW,2013-01-14 02:05:00,
2013-01-13 19:06:00,32.0,3.2,29.86,North,0,0.0,0.0,29,0.00,,,0.00,WUHU216HW,2013-01-14 02:06:00,
2013-01-13 19:30:00,31.7,3.0,29.86,North,0,0.0,0.0,29,0.00,,,0.00,WUHU216HW,2013-01-14 02:30:00,
2013-01-13 19:31:00,31.7,3.0,29.86,North,0,0.0,0.0,29,0.00,,,0.00,WUHU216HW,2013-01-14 02:31:00,
2013-01-13 19:35:00,31.7,3.0,29.86,North,0,0.0,0.0,29,0.00,,,0.00,WUHU216HW,2013-01-14 02:35:00,
2013-01-13 19:36:00,31.7,3.0,29.86,North,0,0.0,0.0,29,0.00,,,0.00,WUHU216HW,2013-01-14 02:36:00,
2013-01-13 19:37:00,31.7,3.0,29.86,North,0,0.0,0.0,29,0.00,,,0.00,WUHU216HW,2013-01-14 02:37:00,
2013-01-13 20:00:00,31.5,2.8,29.86,North,0,0.0,0.0,29,0.00,,,0.00,WUHU216HW,2013-01-14 03:00:00,
2013-01-13 20:05:00,31.5,2.8,29.86,North,0,0.0,0.0,29,0.00,,,0.00,WUHU216HW,2013-01-14 03:05:00,
2013-01-13 20:06:00,31.5,2.8,29.86,North,0,0.0,0.0,29,0.00,,,0.00,WUHU216HW,2013-01-14 03:06:00,
2013-01-13 20:09:00,31.5,2.8,29.86,North,0,0.0,0.0,29,0.00,,,0.00,WUHU216HW,2013-01-14 03:09:00,
2013-01-13 20:30:00,31.3,3.5,29.86,North,0,0.0,0.0,30,0.00,,,0.00,WUHU216HW,2013-01-14 03:30:00,
2013-01-13 20:31:00,31.3,3.5,29.86,North,0,0.0,0.0,30,0.00,,,0.00,WUHU216HW,2013-01-14 03:31:00,
2013-01-13 20:36:00,31.3,3.5,29.86,North,0,0.0,0.0,30,0.00,,,0.00,WUHU216HW,2013-01-14 03:36:00,
2013-01-13 20:37:00,31.3,3.5,29.86,North,0,0.0,0.0,30,0.00,,,0.00,WUHU216HW,2013-01-14 03:37:00,
2013-01-13 21:00:00,29.9,2.8,29.86,North,0,0.0,0.0,31,0.00,,,0.00,WUHU216HW,2013-01-14 04:00:00,
2013-01-13 21:02:00,29.9,3.4,29.86,North,0,0.0,0.0,32,0.00,,,0.00,WUHU216HW,2013-01-14 04:02:00,
2013-01-13 21:06:00,29.9,3.4,29.86,North,0,0.0,0.0,32,0.00,,,0.00,WUHU216HW,2013-01-14 04:06:00,
2013-01-13 21:07:00,29.9,3.4,29.86,North,0,0.0,0.0,32,0.00,,,0.00,WUHU216HW,2013-01-14 04:07:00,
2013-01-13 21:08:00,29.9,3.4,29.86,North,0,0.0,0.0,32,0.00,,,0.00,WUHU216HW,2013-01-14 04:08:00,
2013-01-13 21:30:00,29.3,3.6,29.86,North,0,0.0,0.0,33,0.00,,,0.00,WUHU216HW,2013-01-14 04:30:00,
2013-01-13 21:31:00,29.3,3.6,29.86,North,0,0.0,0.0,33,0.00,,,0.00,WUHU216HW,2013-01-14 04:31:00,
2013-01-13 21:36:00,29.3,3.6,29.86,North,0,0.0,0.0,33,0.00,,,0.00,WUHU216HW,2013-01-14 04:36:00,
2013-01-13 22:00:00,29.0,3.2,29.87,North,0,0.0,0.0,33,0.00,,,0.00,WUHU216HW,2013-01-14 05:00:00,
2013-01-13 22:01:00,29.0,3.2,29.87,North,0,0.0,0.0,33,0.00,,,0.00,WUHU216HW,2013-01-14 05:01:00,
2013-01-13 22:04:00,29.0,3.2,29.87,North,0,0.0,0.0,33,0.00,,,0.00,WUHU216HW,2013-01-14 05:04:00,
2013-01-13 22:05:00,29.0,3.2,29.87,North,0,0.0,0.0,33,0.00,,,0.00,WUHU216HW,2013-01-14 05:05:00,
2013-01-13 22:06:00,29.0,3.2,29.87,North,0,0.0,0.0,33,0.00,,,0.00,WUHU216HW,2013-01-14 05:06:00,
2013-01-13 22:10:00,29.0,3.2,29.87,North,0,0.0,0.0,33,0.00,,,0.00,WUHU216HW,2013-01-14 05:10:00,
2013-01-13 22:30:00,28.4,2.8,29.87,North,0,0.0,0.0,33,0.00,,,0.00,WUHU216HW,2013-01-14 05:30:00,
2013-01-13 22:31:00,28.4,2.8,29.87,North,0,0.0,0.0,33,0.00,,,0.00,WUHU216HW,2013-01-14 05:31:00,
2013-01-13 22:32:00,28.4,2.8,29.87,North,0,0.0,0.0,33,0.00,,,0.00,WUHU216HW,2013-01-14 05:32:00,
2013-01-13 22:35:00,28.4,2.8,29.87,North,0,0.0,0.0,33,0.00,,,0.00,WUHU216HW,2013-01-14 05:35:00,
2013-01-13 22:36:00,28.4,2.8,29.87,North,0,0.0,0.0,33,0.00,,,0.00,WUHU216HW,2013-01-14 05:36:00,
2013-01-13 22:37:00,28.4,2.8,29.87,North,0,0.0,0.0,33,0.00,,,0.00,WUHU216HW,2013-01-14 05:37:00,
2013-01-13 22:38:00,28.4,2.8,29.87,North,0,0.0,0.0,33,0.00,,,0.00,WUHU216HW,2013-01-14 05:38:00,
2013-01-13 23:00:00,27.9,3.0,29.87,North,0,0.0,0.0,34,0.00,,,0.00,WUHU216HW,2013-01-14 06:00:00,
2013-01-13 23:01:00,27.9,3.0,29.87,North,0,0.0,0.0,34,0.00,,,0.00,WUHU216HW,2013-01-14 06:01:00,
2013-01-13 23:05:00,27.9,3.0,29.87,North,0,0.0,0.0,34,0.00,,,0.00,WUHU216HW,2013-01-14 06:05:00,
2013-01-13 23:06:00,27.9,3.0,29.87,North,0,0.0,0.0,34,0.00,,,0.00,WUHU216HW,2013-01-14 06:06:00,
2013-01-13 23:08:00,27.9,3.0,29.87,North,0,0.0,0.0,34,0.00,,,0.00,WUHU216HW,2013-01-14 06:08:00,
2013-01-13 23:30:00,27.4,3.1,29.87,North,0,0.0,0.0,35,0.00,,,0.00,WUHU216HW,2013-01-14 06:30:00,
2013-01-13 23:31:00,27.2,2.9,29.87,North,0,0.0,0.0,35,0.00,,,0.00,WUHU216HW,2013-01-14 06:31:00,
2013-01-13 23:35:00,27.2,2.9,29.87,North,0,0.0,0.0,35,0.00,,,0.00,WUHU216HW,2013-01-14 06:35:00,
2013-01-13 23:36:00,27.2,2.9,29.87,North,0,0.0,0.0,35,0.00,,,0.00,WUHU216HW,2013-01-14 06:36:00,